RH
45 74 63 49 55 68 91 100 100 100 100 100 90 100 96 100 97 92 92 93 80 46 43 50 32 32 41 73 61 96 100 86 36 16 15 13 14 12 8 8 8 8 7 7 7
41 60 93 66 44 42 70 91 100 100 87 100 100 100 100 100 89 93 100 80 69 59 59 44 37 28 42 62 67 99 100 91 60 34 15 15 14 13 15 11 11 10 9 9 10
62 87 50 53 48 40 91 100 100 100 98 81 94 100 70 61 65 73 79 52 87 73 42 40 36 28 48 62 59 90 100 96 79 56 20 15 15 15 12 14 16 14 12 11 12
83 68 60 49 62 46 63 66 99 100 85 57 86 87 69 68 54 77 59 51 100 58 36 40 35 28 81 54 64 76 99 100 98 75 51 24 16 16 16 15 12 13 16 16 13
94 92 46 42 39 50 58 49 86 83 60 44 41 59 70 66 68 80 64 75 100 64 51 32 35 75 99 54 68 81 94 100 100 79 68 62 41 18 18 18 18 17 13 12 13
93 95 75 90 85 80 73 57 64 56 45 44 47 67 69 90 95 90 54 100 100 83 55 25 68 100 82 56 74 72 98 100 100 91 74 64 70 48 22 18 19 20 19 19 19
100 100 90 99 100 96 79 86 74 50 46 45 51 83 89 100 95 92 71 99 65 86 92 39 62 96 84 65 91 93 80 99 100 100 87 74 61 79 64 31 19 19 20 20 20
94 87 83 94 97 99 99 100 92 67 66 68 68 85 100 100 100 100 100 79 98 100 77 44 50 45 61 62 100 78 67 84 100 100 95 89 57 58 73 68 60 55 45 25 21
77 58 64 49 61 67 74 82 100 80 77 69 92 100 100 100 100 100 98 69 100 100 72 61 54 72 72 100 100 74 66 82 95 100 100 100 68 50 68 82 56 59 70 70 63
70 48 49 53 47 37 40 86 100 100 82 70 86 99 100 99 100 100 86 100 80 100 100 97 89 84 64 98 97 78 68 75 100 100 100 100 94 71 55 72 71 48 42 46 43
58 42 29 23 22 20 22 51 85 64 28 28 30 78 100 99 91 100 100 81 66 100 100 87 64 81 75 100 88 75 59 63 75 100 100 100 100 96 74 62 60 66 46 40 48
16 18 18 18 18 18 39 45 25 28 22 32 96 89 100 100 100 98 79 100 100 100 100 56 93 99 95 100 78 64 63 67 99 100 100 100 100 99 92 78 61 59 52 50 49
16 16 17 18 20 20 21 20 28 28 31 60 93 98 94 83 89 94 100 100 100 100 94 100 100 97 99 73 73 78 69 87 98 100 100 100 100 91 90 74 68 71 79 72 68
15 15 17 20 23 20 20 20 27 22 28 43 98 98 100 98 100 100 100 100 90 67 100 100 100 94 58 71 62 56 63 86 95 100 100 100 100 95 92 83 78 68 77 88 91
15 18 24 21 26 27 25 24 23 28 52 100 100 100 98 100 100 94 81 65 60 100 100 99 67 63 76 64 48 56 81 100 100 100 100 100 100 100 100 89 74 79 93 99 94
18 22 24 23 28 26 22 22 41 48 92 88 87 91 100 100 100 64 61 92 100 100 88 61 84 73 66 52 48 68 91 89 90 90 93 100 100 100 100 100 84 81 80 85 85
23 25 26 28 28 29 25 39 49 61 64 83 98 100 100 100 85 70 100 100 99 74 68 84 67 53 53 49 52 59 61 63 66 85 98 100 100 100 100 98 100 95 96 89 84
29 29 32 33 33 31 28 51 83 88 100 100 100 100 94 80 92 100 100 83 68 87 76 56 50 47 51 51 53 59 53 49 50 60 72 85 100 100 100 100 100 96 75 90 99
34 34 42 38 35 34 69 83 77 100 100 100 67 57 99 99 88 81 83 100 94 76 60 52 48 53 60 66 62 64 61 66 65 62 53 60 74 100 100 100 100 66 70 98 100
35 37 48 40 38 60 76 92 93 82 100 82 94 100 100 100 100 100 93 78 67 54 49 42 45 78 96 100 100 100 98 83 79 72 59 67 64 86 100 100 96 94 89 99 92
39 44 48 42 51 76 87 96 98 100 84 86 100 95 88 96 100 83 57 46 52 49 39 41 54 85 99 94 78 79 68 62 51 47 40 45 60 56 46 46 53 67 83 74 77
43 48 45 48 71 77 100 99 100 100 88 73 100 83 100 91 79 71 62 59 50 46 50 54 54 70 66 66 63 59 62 60 56 56 52 46 64 58 55 45 43 44 49 58 69
42 46 51 57 80 100 100 73 75 100 100 100 99 100 100 94 95 84 53 47 51 50 46 50 51 52 48 51 55 78 59 57 57 67 70 75 70 52 46 50 46 47 56 69 76
52 94 99 91 100 100 99 63 88 100 100 100 100 90 88 82 70 55 44 50 48 49 43 43 42 37 40 40 40 37 30 34 38 47 40 79 58 50 63 67 77 75 78 88 91
100 100 95 100 100 100 75 88 100 100 77 69 96 87 73 66 51 45 48 47 42 40 36 37 38 42 43 32 39 37 34 35 37 40 38 42 39 43 42 43 43 46 52 51 47
100 100 100 100 100 96 95 100 100 100 100 100 87 66 52 55 49 46 43 34 30 33 31 32 32 38 36 33 41 50 33 41 45 41 41 47 55 50 56 60 53 44 41 40 39
100 100 89 68 82 100 100 100 94 86 95 73 65 62 52 50 49 45 33 27 27 28 29 28 29 32 37 32 37 38 33 35 37 44 43 52 57 56 49 45 47 42 40 33 35
Wind_Speed
57 56 55 52 51 50 47 46 45 41 37 36 39 36 35 33 41 49 49 47 46 49 43 36 41 43 49 38 39 38 30 25 25 23 22 20 17 15 12 9 7 8 8 8 8
62 62 64 61 63 54 53 51 47 44 41 39 38 36 45 39 43 43 43 44 44 44 39 37 38 43 48 38 36 38 31 27 26 25 22 23 20 19 18 17 14 12 13 12 12
69 67 60 63 59 59 45 45 45 47 44 42 44 48 46 49 47 45 46 47 43 39 40 38 38 46 44 38 34 34 34 31 27 26 24 23 23 22 22 20 20 20 20 20 20
72 69 59 60 58 58 54 52 49 45 44 46 49 51 51 52 54 46 47 45 39 44 39 41 40 43 43 38 35 34 37 30 28 27 26 25 25 24 24 24 25 24 25 26 28
72 65 62 61 60 60 55 57 51 48 50 47 50 55 56 56 54 51 51 48 39 42 38 42 42 44 38 38 37 35 35 34 29 29 28 29 28 25 26 24 26 27 29 30 31
69 67 61 63 58 60 57 60 56 53 53 52 51 56 58 50 47 43 51 43 41 41 35 41 42 37 39 42 37 35 38 36 31 32 32 31 29 30 29 29 28 28 29 30 32
63 60 57 54 56 54 52 58 59 56 54 57 58 60 58 47 46 53 44 42 45 41 41 42 43 49 46 41 40 34 36 39 37 34 36 35 31 31 34 33 32 33 32 32 33
70 63 65 66 67 65 58 56 57 57 54 58 60 60 54 52 54 49 44 42 44 40 40 43 45 43 44 41 38 34 36 38 41 37 39 37 36 32 33 34 35 35 35 36 37
68 59 61 60 65 61 60 56 56 56 55 59 60 60 55 51 54 45 43 48 39 43 43 44 44 44 42 42 37 34 35 38 41 42 39 39 39 33 29 30 36 31 31 35 38
69 62 59 63 61 58 59 55 55 54 50 51 55 57 53 47 42 44 46 38 46 46 43 41 44 42 42 44 40 35 36 38 41 45 43 42 42 38 33 32 36 38 39 37 41
69 63 61 59 56 55 47 47 48 46 46 47 46 41 38 44 47 46 45 47 50 44 41 42 46 43 43 43 40 40 41 40 40 43 46 45 47 43 41 35 35 37 39 37 36
60 61 64 60 53 50 41 46 45 41 45 43 42 42 44 40 40 48 53 48 38 40 42 46 46 42 45 41 44 45 44 41 44 44 43 46 51 47 45 40 39 39 40 42 41
62 61 55 51 46 46 45 45 43 42 42 43 46 49 43 47 46 49 51 46 42 39 45 46 42 44 45 51 52 47 43 43 42 45 45 45 51 48 46 41 41 42 44 45 45
57 57 52 48 43 44 44 45 45 44 42 41 47 42 47 42 39 42 43 41 42 44 44 43 44 50 54 54 49 52 46 43 41 43 47 46 52 50 49 42 43 45 46 46 44
57 54 47 47 40 40 44 46 46 44 34 34 38 47 49 47 46 45 51 49 44 43 44 47 51 55 53 48 48 47 45 43 44 44 48 49 49 51 52 50 46 46 46 45 48
53 50 46 47 43 41 43 45 43 43 44 46 49 49 48 48 47 46 42 43 45 43 48 51 53 49 46 47 49 46 43 42 44 45 44 49 50 55 52 53 51 51 48 49 51
50 49 47 42 40 42 42 40 39 38 40 44 45 48 52 51 48 43 45 45 45 47 51 54 55 51 48 48 47 45 45 42 42 45 44 46 49 56 55 54 52 49 53 57 59
50 47 40 40 41 42 39 41 44 45 42 46 49 50 47 42 41 44 48 50 49 54 56 56 57 56 52 48 46 46 46 44 41 44 45 45 48 55 58 56 55 54 57 61 65
50 46 41 39 38 39 38 40 39 44 46 46 40 43 44 45 43 46 49 50 51 53 55 58 60 54 49 48 47 49 51 51 49 49 47 51 54 60 66 66 64 61 63 65 69
53 48 50 45 44 41 43 45 44 47 48 41 42 44 42 42 48 49 49 52 54 57 61 61 54 53 51 51 52 52 54 55 56 56 55 56 59 60 67 69 67 67 66 66 69
52 48 53 49 46 47 48 46 47 47 44 41 40 40 45 47 48 49 54 59 61 61 63 58 51 50 54 54 53 54 58 58 54 54 49 48 57 59 60 66 65 63 65 64 68
55 54 51 50 47 51 51 50 47 49 45 46 45 46 51 56 57 56 59 61 62 60 51 50 49 53 55 55 54 56 53 48 49 49 47 45 43 49 50 53 49 50 54 54 55
57 57 52 52 53 53 52 48 42 43 43 43 46 47 50 54 55 58 61 64 54 51 49 48 47 48 48 48 50 52 57 61 57 53 53 49 52 56 56 50 49 46 44 45 50
54 53 55 55 55 55 54 48 44 47 45 46 49 54 52 53 57 60 61 52 49 47 43 41 41 36 32 39 41 43 42 45 48 49 44 60 48 55 56 55 55 55 55 57 62
54 54 56 57 56 52 46 47 50 50 50 51 55 54 56 58 62 55 51 45 42 39 34 36 39 39 39 39 39 38 39 39 38 40 39 43 44 43 43 43 45 49 52 54 53
53 50 52 53 51 52 49 54 51 48 51 52 56 59 58 63 54 50 41 36 38 38 36 39 41 40 43 40 40 42 42 40 41 44 45 43 45 42 46 49 51 50 49 49 49
51 52 48 48 49 53 53 55 56 57 57 59 58 56 55 51 46 41 35 38 37 38 38 40 42 43 48 43 40 45 45 42 46 49 47 50 52 53 53 55 57 56 55 54 56
Wind_Direction
245 249 256 263 262 269 270 269 266 278 277 282 287 281 297 303 297 305 314 316 320 321 321 322 326 330 334 342 342 335 326 325 326 325 328 325 326 320 316 315 301 291 287 274 267
246 252 258 258 262 267 271 271 266 273 282 284 270 277 292 291 302 307 306 319 318 318 315 322 325 325 324 335 340 332 328 324 319 317 316 320 316 313 309 302 301 294 288 283 277
243 248 248 253 258 263 263 267 269 271 276 279 273 280 293 300 304 298 305 312 312 316 313 314 317 323 322 329 337 332 325 318 315 311 310 312 312 308 301 300 297 291 288 282 280
242 241 250 253 255 258 262 268 272 270 274 278 274 278 293 296 298 298 302 304 307 317 309 311 315 317 315 326 333 331 323 313 312 310 306 302 303 303 299 295 290 287 288 285 281
241 242 250 249 251 254 259 266 263 265 272 276 278 276 286 292 295 292 297 300 300 311 307 310 312 309 314 322 326 326 321 315 312 310 307 305 302 297 294 299 291 290 287 285 284
243 245 243 245 253 251 259 259 258 266 273 275 274 276 285 287 290 285 303 294 298 306 298 309 308 320 323 322 317 326 318 313 307 304 303 304 300 293 289 289 289 293 290 289 289
234 233 237 243 247 251 258 254 259 264 274 276 273 280 286 282 285 293 294 290 296 297 295 304 300 310 315 317 315 317 314 310 304 300 300 301 302 296 294 288 286 286 289 292 291
240 249 253 250 253 257 263 260 257 265 268 268 276 277 281 280 284 293 284 291 295 294 294 295 297 305 307 310 310 314 314 309 305 296 300 297 302 302 297 294 290 291 290 287 287
244 248 252 255 256 261 266 262 257 263 266 267 268 275 278 279 284 276 276 289 282 290 290 293 295 299 304 306 305 313 310 308 305 297 292 294 304 304 297 294 296 296 298 299 295
242 246 251 254 258 260 264 259 256 260 262 263 267 271 276 281 273 273 284 273 287 284 285 288 293 295 303 298 303 307 307 305 302 299 294 290 294 304 296 286 290 295 297 299 294
239 242 245 250 252 254 255 251 252 256 263 264 269 272 267 274 276 274 274 277 287 283 278 287 293 297 301 295 302 307 307 303 298 297 295 296 291 296 300 294 293 290 295 298 300
237 240 243 246 248 250 248 252 260 264 264 263 258 263 269 270 266 270 280 282 279 278 286 290 289 292 289 296 307 306 303 297 294 293 293 295 294 297 297 292 290 291 293 296 297
237 233 236 241 245 246 250 255 254 254 254 254 259 262 268 270 277 277 272 269 274 287 288 288 288 287 297 306 304 300 298 292 292 292 293 294 290 294 293 294 289 292 293 294 294
234 234 237 241 247 242 245 249 251 252 252 253 255 255 249 261 263 266 271 277 279 286 285 282 285 297 299 298 303 303 296 289 294 293 290 292 289 293 292 293 291 293 292 294 293
235 238 241 241 240 242 244 245 246 243 241 249 251 247 255 256 257 267 278 283 280 277 280 287 291 293 297 302 304 296 293 293 296 297 294 290 291 292 294 292 291 290 289 289 293
234 236 239 240 240 242 241 246 240 237 233 234 244 252 252 257 264 275 281 279 275 279 285 288 293 304 301 303 300 292 291 291 294 296 295 293 291 290 290 292 292 290 291 292 293
235 235 236 238 237 240 242 234 239 239 239 243 248 250 256 263 269 275 273 268 283 289 287 295 303 303 299 298 296 296 297 299 302 300 303 299 296 293 292 292 294 297 298 298 297
234 230 228 234 238 242 246 240 236 239 240 247 250 255 266 267 268 268 270 281 284 286 297 303 304 302 298 293 294 296 298 299 298 298 298 295 294 293 291 291 289 293 295 296 295
229 227 229 236 242 240 237 237 237 236 240 249 254 255 260 269 271 273 276 281 286 291 297 300 300 295 294 296 298 301 300 298 296 293 292 292 292 293 292 291 294 292 293 293 290
226 227 234 241 239 238 237 232 236 240 244 253 255 260 262 264 267 271 287 292 293 293 294 299 295 294 295 296 298 296 295 294 293 291 290 290 287 286 290 289 290 291 290 287 287
224 230 235 239 236 231 230 233 238 244 243 252 260 270 266 265 277 286 288 288 290 294 297 295 292 293 294 295 295 297 297 296 294 294 295 291 291 287 286 288 287 287 286 287 289
223 231 231 232 228 226 231 234 238 246 249 256 261 267 270 278 282 282 283 292 296 294 290 290 291 292 292 294 296 295 298 298 297 298 295 293 292 296 297 303 301 291 287 289 291
223 232 227 226 223 225 230 235 237 248 252 253 262 268 272 274 277 282 289 293 289 287 287 290 293 292 293 294 294 293 294 291 293 292 292 290 292 291 293 297 296 298 298 296 292
221 215 215 219 225 230 231 243 239 249 248 258 265 271 280 287 284 288 290 286 286 287 288 290 289 291 299 301 303 296 296 298 300 298 301 295 299 298 299 300 299 298 297 295 293
205 216 217 222 230 231 236 239 242 248 261 265 266 272 282 284 288 283 279 279 283 287 289 291 294 299 296 302 308 305 306 311 312 310 312 307 309 311 308 305 302 298 295 293 295
213 220 216 222 230 237 237 239 248 256 261 266 268 276 283 285 279 278 274 278 282 286 290 291 296 296 296 300 302 307 305 305 305 304 306 307 304 301 306 307 305 302 301 302 301
222 225 226 227 232 237 239 249 253 257 265 270 275 278 278 274 271 267 274 281 285 287 286 288 291 294 299 299 304 309 306 310 313 315 311 312 311 308 305 305 306 304 300 298 300